Satellite: NOAA-11 Catalog number: 19531 Epoch time: 13283.34282334 Element set: 544 Inclination: 098.7044 deg RA of node: 003.6230 deg Eccentricity: 0.0010119 Arg of perigee: 293.2373 deg Mean anomaly: 066.7735 deg Mean motion: 14.15030819 rev/day Decay rate: 5.6e-07 rev/day^2 Epoch rev: 29240 Checksum: 272
Satellite: NOAA-12 Catalog number: 21263 Epoch time: 13283.44292515 Element set: 3 Inclination: 098.6898 deg RA of node: 307.8739 deg Eccentricity: 0.0013026 Arg of perigee: 241.5047 deg Mean anomaly: 256.0463 deg Mean motion: 14.25589068 rev/day Decay rate: 5.9e-07 rev/day^2 Epoch rev: 16497 Checksum: 315
Satellite: MET-3/5 Catalog number: 21655 Epoch time: 13283.79638204 Element set: 804 Inclination: 082.5581 deg RA of node: 172.6230 deg Eccentricity: 0.0012997 Arg of perigee: 196.3278 deg Mean anomaly: 163.7427 deg Mean motion: 13.17045781 rev/day Decay rate: 4.25e-06 rev/day^2 Epoch rev: 6515 Checksum: 314
Satellite: MET-2/21 Catalog number: 22782 Epoch time: 13283.76559623 Element set: 865 Inclination: 082.5530 deg RA of node: 011.2104 deg Eccentricity: 0.0021423 Arg of perigee: 242.5787 deg Mean anomaly: 276.3811 deg Mean motion: 13.83715505 rev/day Decay rate: 3.7e-07 rev/day^2 Epoch rev: 1562 Checksum: 285
Satellite: OKEAN-4 Catalog number: 23317 Epoch time: 13283.83920139 Element set: 346 Inclination: 082.5366 deg RA of node: 301.5357 deg Eccentricity: 0.0020921 Arg of perigee: 199.5884 deg Mean anomaly: 140.4511 deg Mean motion: 14.84665461 rev/day Decay rate: 7.95e-06 rev/day^2 Epoch rev: 2609 Checksum: 306
Satellite: NOAA-14 Catalog number: 23455 Epoch time: 13283.49155579 Element set: 481 Inclination: 098.7975 deg RA of node: 006.1521 deg Eccentricity: 0.0009810 Arg of perigee: 036.6087 deg Mean anomaly: 032.3295 deg Mean motion: 14.13923227 rev/day Decay rate: 1.3e-07 rev/day^2 Epoch rev: 96866 Checksum: 315
Satellite: NOAA-15 Catalog number: 25338 Epoch time: 13283.43886054 Element set: 905 Inclination: 098.7352 deg RA of node: 273.0777 deg Eccentricity: 0.0011403 Arg of perigee: 148.8449 deg Mean anomaly: 005.3109 deg Mean motion: 14.25272928 rev/day Decay rate: 1.34e-06 rev/day^2 Epoch rev: 80126 Checksum: 305
Satellite: RESURS Catalog number: 25394 Epoch time: 13283.84729023 Element set: 489 Inclination: 098.3776 deg RA of node: 254.2246 deg Eccentricity: 0.0000204 Arg of perigee: 235.4484 deg Mean anomaly: 180.4334 deg Mean motion: 14.24337889 rev/day Decay rate: 3.1e-07 rev/day^2 Epoch rev: 79282 Checksum: 311
Satellite: FENGYUN1 Catalog number: 25730 Epoch time: 13283.15849779 Element set: 983 Inclination: 098.8900 deg RA of node: 241.3264 deg Eccentricity: 0.0027538 Arg of perigee: 085.1764 deg Mean anomaly: 342.7848 deg Mean motion: 14.10709525 rev/day Decay rate: 1.601e-05 rev/day^2 Epoch rev: 74225 Checksum: 323
Satellite: OKEAN-0 Catalog number: 25860 Epoch time: 13282.78410644 Element set: 67 Inclination: 098.0063 deg RA of node: 243.7948 deg Eccentricity: 0.0002034 Arg of perigee: 115.7008 deg Mean anomaly: 304.2900 deg Mean motion: 14.74717937 rev/day Decay rate: 4.45e-06 rev/day^2 Epoch rev: 76524 Checksum: 293
Satellite: NOAA-16 Catalog number: 26536 Epoch time: 13283.42475376 Element set: 394 Inclination: 099.0289 deg RA of node: 337.2536 deg Eccentricity: 0.0011090 Arg of perigee: 166.4429 deg Mean anomaly: 314.9450 deg Mean motion: 14.12924769 rev/day Decay rate: 1.99e-06 rev/day^2 Epoch rev: 67284 Checksum: 336
Satellite: NOAA-17 Catalog number: 27453 Epoch time: 13283.48384167 Element set: 301 Inclination: 098.3126 deg RA of node: 291.4507 deg Eccentricity: 0.0011932 Arg of perigee: 181.8436 deg Mean anomaly: 340.8633 deg Mean motion: 14.24624976 rev/day Decay rate: 1.26e-06 rev/day^2 Epoch rev: 58713 Checksum: 310
Satellite: NOAA-18 Catalog number: 28654 Epoch time: 13283.46816272 Element set: 791 Inclination: 099.1157 deg RA of node: 253.4275 deg Eccentricity: 0.0013448 Arg of perigee: 243.1368 deg Mean anomaly: 269.6158 deg Mean motion: 14.11873009 rev/day Decay rate: 1.17e-06 rev/day^2 Epoch rev: 43232 Checksum: 315
Satellite: NOAA-19 Catalog number: 33591 Epoch time: 13283.50325009 Element set: 965 Inclination: 098.9142 deg RA of node: 224.7091 deg Eccentricity: 0.0015165 Arg of perigee: 103.5780 deg Mean anomaly: 358.5540 deg Mean motion: 14.11561162 rev/day Decay rate: 4.7e-07 rev/day^2 Epoch rev: 24076 Checksum: 291
/EX SB KEPS @ AMSAT $ORB13283.M Orbital Elements 13283.MISC
HR AMSAT ORBITAL ELEMENTS FOR MANNED AND MISCELLANEOUS SATELLITES FROM WA5QGD FORT WORTH,TX October 10, 2013 BID: ORB13283.M TO ALL RADIO AMATEURS BT
Satellite: HUBBLE Catalog number: 20580 Epoch time: 13283.00674197 Element set: 349 Inclination: 028.4700 deg RA of node: 239.9203 deg Eccentricity: 0.0003209 Arg of perigee: 130.9162 deg Mean anomaly: 297.9742 deg Mean motion: 15.03994410 rev/day Decay rate: 1.654e-05 rev/day^2 Epoch rev: 8699 Checksum: 299
Satellite: ISS Catalog number: 25544 Epoch time: 13284.02693293 Element set: 782 Inclination: 051.6510 deg RA of node: 254.3210 deg Eccentricity: 0.0002730 Arg of perigee: 017.6093 deg Mean anomaly: 062.7705 deg Mean motion: 15.49547543 rev/day Decay rate: 1.1202e-04 rev/day^2 Epoch rev: 85267 Checksum: 277
Satellite: CO-58 Catalog number: 28895 Epoch time: 13283.53605537 Element set: 593 Inclination: 097.8550 deg RA of node: 133.1544 deg Eccentricity: 0.0018898 Arg of perigee: 079.9335 deg Mean anomaly: 280.3998 deg Mean motion: 14.61257377 rev/day Decay rate: 6.08e-06 rev/day^2 Epoch rev: 42378 Checksum: 368
Satellite: FALCON Catalog number: 30776 Epoch time: 13282.77509714 Element set: 711 Inclination: 035.4301 deg RA of node: 218.4178 deg Eccentricity: 0.0002750 Arg of perigee: 244.5975 deg Mean anomaly: 202.5538 deg Mean motion: 15.11595798 rev/day Decay rate: 6.517e-05 rev/day^2 Epoch rev: 36276 Checksum: 312
Satellite: MAST Catalog number: 31126 Epoch time: 13283.44950483 Element set: 873 Inclination: 097.8910 deg RA of node: 272.8545 deg Eccentricity: 0.0094049 Arg of perigee: 054.0094 deg Mean anomaly: 098.2954 deg Mean motion: 14.54694930 rev/day Decay rate: 6.76e-06 rev/day^2 Epoch rev: 34407 Checksum: 328
Satellite: CAPE1 Catalog number: 31130 Epoch time: 13283.76094792 Element set: 873 Inclination: 097.9094 deg RA of node: 269.5589 deg Eccentricity: 0.0101643 Arg of perigee: 069.1921 deg Mean anomaly: 292.0128 deg Mean motion: 14.53647733 rev/day Decay rate: 9.09e-06 rev/day^2 Epoch rev: 34356 Checksum: 328
Satellite: COMPASS Catalog number: 32787 Epoch time: 13283.77381134 Element set: 750 Inclination: 097.7397 deg RA of node: 339.2892 deg Eccentricity: 0.0013048 Arg of perigee: 284.0839 deg Mean anomaly: 075.8926 deg Mean motion: 14.85943119 rev/day Decay rate: 2.396e-05 rev/day^2 Epoch rev: 29512 Checksum: 347
Satellite: AAUSAT2 Catalog number: 32788 Epoch time: 13283.40844308 Element set: 733 Inclination: 097.7405 deg RA of node: 339.6599 deg Eccentricity: 0.0012599 Arg of perigee: 284.3804 deg Mean anomaly: 075.6013 deg Mean motion: 14.86437605 rev/day Decay rate: 3.354e-05 rev/day^2 Epoch rev: 29511 Checksum: 329
Satellite: DO-64 Catalog number: 32789 Epoch time: 13283.49104351 Element set: 767 Inclination: 097.7563 deg RA of node: 344.2320 deg Eccentricity: 0.0012066 Arg of perigee: 274.5825 deg Mean anomaly: 132.7611 deg Mean motion: 14.89400575 rev/day Decay rate: 6.134e-05 rev/day^2 Epoch rev: 29528 Checksum: 319
Satellite: CO-66 Catalog number: 32791 Epoch time: 13282.68517704 Element set: 725 Inclination: 097.7394 deg RA of node: 337.4367 deg Eccentricity: 0.0013607 Arg of perigee: 289.3832 deg Mean anomaly: 189.6375 deg Mean motion: 14.84992243 rev/day Decay rate: 1.505e-05 rev/day^2 Epoch rev: 29486 Checksum: 360
Satellite: RS-30 Catalog number: 32953 Epoch time: 13283.56006598 Element set: 277 Inclination: 082.5094 deg RA of node: 356.4476 deg Eccentricity: 0.0018058 Arg of perigee: 344.5163 deg Mean anomaly: 015.5365 deg Mean motion: 12.43037641 rev/day Decay rate: 1.0e-07 rev/day^2 Epoch rev: 24424 Checksum: 292
Satellite: METEOR-M Catalog number: 35865 Epoch time: 13283.77132883 Element set: 880 Inclination: 098.5885 deg RA of node: 333.2775 deg Eccentricity: 0.0003306 Arg of perigee: 088.4573 deg Mean anomaly: 271.6980 deg Mean motion: 14.21893680 rev/day Decay rate: -2.0e-07 rev/day^2 Epoch rev: 21089 Checksum: 328
Satellite: RS-38 Catalog number: 35869 Epoch time: 13283.71405409 Element set: 836 Inclination: 098.5823 deg RA of node: 333.1015 deg Eccentricity: 0.0005335 Arg of perigee: 094.4422 deg Mean anomaly: 265.7355 deg Mean motion: 14.22147193 rev/day Decay rate: 1.6e-07 rev/day^2 Epoch rev: 21091 Checksum: 296
Satellite: JUGNU Catalog number: 37839 Epoch time: 13283.48907851 Element set: 479 Inclination: 019.9621 deg RA of node: 328.1343 deg Eccentricity: 0.0019174 Arg of perigee: 112.8487 deg Mean anomaly: 023.5231 deg Mean motion: 14.12187402 rev/day Decay rate: 4.16e-06 rev/day^2 Epoch rev: 10321 Checksum: 287
Satellite: SRMSAT Catalog number: 37841 Epoch time: 13283.49428589 Element set: 479 Inclination: 019.9728 deg RA of node: 342.4410 deg Eccentricity: 0.0012150 Arg of perigee: 062.2485 deg Mean anomaly: 078.9364 deg Mean motion: 14.10252483 rev/day Decay rate: 3.81e-06 rev/day^2 Epoch rev: 10307 Checksum: 298
Satellite: RAX-2 Catalog number: 37853 Epoch time: 13283.72922760 Element set: 614 Inclination: 101.6969 deg RA of node: 190.9124 deg Eccentricity: 0.0232543 Arg of perigee: 055.9349 deg Mean anomaly: 022.2818 deg Mean motion: 14.84468521 rev/day Decay rate: 8.770e-05 rev/day^2 Epoch rev: 10558 Checksum: 319
